Wetterdaten: Montag, 21.10.2013
Datum Zeit Temperatur Luftfeuchte Luftdruck Regen Wind Richtung Richtung Taupunkt Windchill Windben
21.10.2013 00:00 9,9 C 90 % 1021,8 hPa 0,0 l/m 0,0 km/h (0 Bft) SO 135 8,3 C 10,1 C 0,0 km/h (0 Bft)
21.10.2013 00:05 9,9 C 90 % 1021,8 hPa 0,0 l/m 0,0 km/h (0 Bft) S-SO 157 8,3 C 10,1 C 0,0 km/h (0 Bft)
21.10.2013 00:10 9,7 C 90 % 1021,8 hPa 0,0 l/m 0,0 km/h (0 Bft) S-SO 157 8,1 C 10,1 C 0,0 km/h (0 Bft)
21.10.2013 00:15 9,4 C 90 % 1021,8 hPa 0,0 l/m 0,0 km/h (0 Bft) W-SW 247 7,8 C 9,9 C 0,0 km/h (0 Bft)
21.10.2013 00:20 9,4 C 90 % 1021,8 hPa 0,0 l/m 0,0 km/h (0 Bft) S-SO 157 7,8 C 9,9 C 0,0 km/h (0 Bft)
21.10.2013 00:25 9,4 C 90 % 1021,8 hPa 0,0 l/m 0,0 km/h (0 Bft) S-SO 157 7,8 C 9,9 C 0,0 km/h (0 Bft)
21.10.2013 00:30 9,4 C 90 % 1021,8 hPa 0,0 l/m 0,0 km/h (0 Bft) S-SO 157 7,8 C 9,8 C 0,0 km/h (0 Bft)
21.10.2013 00:35 9,6 C 91 % 1021,8 hPa 0,0 l/m 0,0 km/h (0 Bft) SO 135 8,2 C 9,9 C 0,0 km/h (0 Bft)
21.10.2013 00:40 9,9 C 91 % 1021,8 hPa 0,0 l/m 0,0 km/h (0 Bft) W-SW 247 8,5 C 10,0 C 0,0 km/h (0 Bft)
21.10.2013 00:45 9,9 C 91 % 1021,8 hPa 0,0 l/m 0,0 km/h (0 Bft) SO 135 8,5 C 10,1 C 0,0 km/h (0 Bft)
21.10.2013 00:50 9,9 C 91 % 1021,8 hPa 0,0 l/m 0,0 km/h (0 Bft) S 180 8,5 C 10,3 C 0,0 km/h (0 Bft)
21.10.2013 00:55 10,1 C 91 % 1021,8 hPa 0,0 l/m 0,0 km/h (0 Bft) O-SO 112 8,7 C 10,2 C 0,0 km/h (0 Bft)
21.10.2013 01:00 9,7 C 91 % 1021,8 hPa 0,0 l/m 0,0 km/h (0 Bft) S-SW 202 8,3 C 10,1 C 0,0 km/h (0 Bft)
21.10.2013 01:05 9,7 C 91 % 1021,8 hPa 0,0 l/m 0,0 km/h (0 Bft) S-SW 202 8,3 C 10,1 C 0,0 km/h (0 Bft)
21.10.2013 01:10 9,7 C 91 % 1021,8 hPa 0,0 l/m 0,0 km/h (0 Bft) S 180 8,3 C 10,1 C 0,0 km/h (0 Bft)
21.10.2013 01:15 9,7 C 91 % 1021,8 hPa 0,0 l/m 0,0 km/h (0 Bft) W-SW 247 8,3 C 10,1 C 0,0 km/h (0 Bft)
21.10.2013 01:20 9,8 C 91 % 1021,8 hPa 0,0 l/m 0,0 km/h (0 Bft) SO 135 8,4 C 10,1 C 0,0 km/h (0 Bft)
21.10.2013 01:22 9,9 C 91 % 1021,8 hPa 0,0 l/m 0,0 km/h (0 Bft) SO 135 8,5 C 10,2 C 0,0 km/h (0 Bft)
21.10.2013 01:24 10,1 C 91 % 1021,9 hPa 0,0 l/m 0,0 km/h (0 Bft) W-NW 292 8,7 C 10,5 C 0,0 km/h (0 Bft)
21.10.2013 01:25 10,1 C 91 % 1021,9 hPa 0,0 l/m 0,0 km/h (0 Bft) W-NW 292 8,7 C 10,5 C 0,0 km/h (0 Bft)
21.10.2013 01:28 10,2 C 92 % 1021,9 hPa 0,0 l/m 0,0 km/h (0 Bft) S 180 9,0 C 10,8 C 0,0 km/h (0 Bft)
21.10.2013 01:33 10,5 C 92 % 1021,9 hPa 0,0 l/m 0,2 km/h (0 Bft) S-SO 157 9,3 C 11,1 C 0,0 km/h (0 Bft)
21.10.2013 01:35 10,5 C 92 % 1021,9 hPa 0,0 l/m 0,2 km/h (0 Bft) S-SO 157 9,3 C 11,1 C 0,0 km/h (0 Bft)
21.10.2013 01:40 10,7 C 92 % 1021,9 hPa 0,0 l/m 0,2 km/h (0 Bft) S-SO 157 9,5 C 11,1 C 0,0 km/h (0 Bft)
21.10.2013 01:43 10,7 C 92 % 1021,9 hPa 0,0 l/m 0,2 km/h (0 Bft) S-SO 157 9,5 C 11,1 C 0,0 km/h (0 Bft)
21.10.2013 01:48 10,7 C 92 % 1022,0 hPa 0,0 l/m 0,3 km/h (0 Bft) W-SW 247 9,5 C 11,2 C 0,0 km/h (0 Bft)
21.10.2013 01:53 10,3 C 91 % 1022,0 hPa 0,0 l/m 0,0 km/h (0 Bft) W-SW 247 8,9 C 11,0 C 0,0 km/h (0 Bft)
21.10.2013 01:58 10,0 C 91 % 1022,0 hPa 0,0 l/m 0,0 km/h (0 Bft) S 180 8,6 C 10,7 C 0,0 km/h (0 Bft)
21.10.2013 02:03 9,7 C 91 % 1021,9 hPa 0,0 l/m 0,0 km/h (0 Bft) O 90 8,3 C 10,4 C 0,0 km/h (0 Bft)
21.10.2013 02:08 9,8 C 91 % 1021,9 hPa 0,0 l/m 0,0 km/h (0 Bft) S-SO 157 8,4 C 10,3 C 0,0 km/h (0 Bft)
21.10.2013 02:13 9,9 C 91 % 1021,9 hPa 0,0 l/m 0,0 km/h (0 Bft) O 90 8,5 C 10,3 C 0,0 km/h (0 Bft)
21.10.2013 02:18 9,9 C 91 % 1021,9 hPa 0,0 l/m 0,0 km/h (0 Bft) O-SO 112 8,5 C 10,3 C 0,0 km/h (0 Bft)
21.10.2013 02:23 10,0 C 91 % 1021,9 hPa 0,0 l/m 0,0 km/h (0 Bft) NO 45 8,6 C 10,4 C 0,0 km/h (0 Bft)
21.10.2013 02:28 10,1 C 91 % 1021,9 hPa 0,0 l/m 0,0 km/h (0 Bft) N-NO 22 8,7 C 10,4 C 0,0 km/h (0 Bft)
21.10.2013 02:33 10,4 C 91 % 1021,9 hPa 0,0 l/m 0,6 km/h (0 Bft) NO 45 9,0 C 10,5 C 0,0 km/h (0 Bft)
21.10.2013 02:38 10,5 C 91 % 1021,9 hPa 0,0 l/m 0,8 km/h (0 Bft) O 90 9,1 C 10,6 C 0,0 km/h (0 Bft)
21.10.2013 02:43 10,4 C 91 % 1021,9 hPa 0,0 l/m 0,5 km/h (0 Bft) S-SW 202 9,0 C 10,7 C 1,9 km/h (1 Bft)
21.10.2013 02:48 10,2 C 91 % 1021,9 hPa 0,0 l/m 0,3 km/h (0 Bft) S-SO 157 8,8 C 10,8 C 1,6 km/h (1 Bft)
21.10.2013 02:53 10,3 C 91 % 1021,9 hPa 0,0 l/m 0,3 km/h (0 Bft) S-SO 157 8,9 C 10,8 C 0,0 km/h (0 Bft)
21.10.2013 02:58 10,3 C 91 % 1021,9 hPa 0,0 l/m 0,0 km/h (0 Bft) S-SO 157 8,9 C 10,8 C 0,0 km/h (0 Bft)
21.10.2013 03:03 10,4 C 91 % 1022,2 hPa 0,0 l/m 0,0 km/h (0 Bft) N-NO 22 9,0 C 10,7 C 0,0 km/h (0 Bft)
21.10.2013 03:08 10,1 C 91 % 1022,2 hPa 0,0 l/m 0,2 km/h (0 Bft) N-NW 337 8,7 C 10,5 C 0,0 km/h (0 Bft)
21.10.2013 03:13 10,0 C 91 % 1022,2 hPa 0,0 l/m 0,5 km/h (0 Bft) S-SO 157 8,6 C 10,4 C 0,0 km/h (0 Bft)
21.10.2013 03:18 9,9 C 91 % 1022,2 hPa 0,0 l/m 0,5 km/h (0 Bft) NO 45 8,5 C 10,3 C 0,0 km/h (0 Bft)
21.10.2013 03:23 9,9 C 91 % 1022,1 hPa 0,0 l/m 0,2 km/h (0 Bft) NO 45 8,5 C 10,3 C 0,0 km/h (0 Bft)
21.10.2013 03:28 9,6 C 91 % 1022,1 hPa 0,0 l/m 0,2 km/h (0 Bft) NO 45 8,2 C 10,0 C 0,0 km/h (0 Bft)
21.10.2013 03:31 9,6 C 91 % 1022,1 hPa 0,0 l/m 0,2 km/h (0 Bft) NO 45 8,2 C 10,0 C 0,0 km/h (0 Bft)
21.10.2013 03:35 9,7 C 91 % 1022,1 hPa 0,0 l/m 0,3 km/h (0 Bft) O-SO 112 8,3 C 9,9 C 3,9 km/h (1 Bft)
21.10.2013 03:40 9,6 C 91 % 1022,1 hPa 0,0 l/m 0,3 km/h (0 Bft) O-SO 112 8,2 C 9,9 C 0,0 km/h (0 Bft)
21.10.2013 03:45 9,3 C 91 % 1022,0 hPa 0,0 l/m 0,0 km/h (0 Bft) S-SW 202 7,9 C 9,9 C 0,0 km/h (0 Bft)
21.10.2013 03:50 9,0 C 91 % 1022,0 hPa 0,0 l/m 0,0 km/h (0 Bft) S 180 7,6 C 9,6 C 0,0 km/h (0 Bft)
21.10.2013 03:55 8,6 C 91 % 1022,0 hPa 0,0 l/m 0,0 km/h (0 Bft) S 180 7,2 C 9,3 C 0,0 km/h (0 Bft)
21.10.2013 04:00 8,6 C 91 % 1022,0 hPa 0,0 l/m 0,0 km/h (0 Bft) S 180 7,2 C 9,1 C 0,0 km/h (0 Bft)
21.10.2013 04:05 8,4 C 91 % 1021,9 hPa 0,0 l/m 0,0 km/h (0 Bft) SO 135 7,0 C 8,9 C 0,0 km/h (0 Bft)
21.10.2013 04:10 8,7 C 91 % 1021,9 hPa 0,0 l/m 0,0 km/h (0 Bft) O-SO 112 7,3 C 8,8 C 0,0 km/h (0 Bft)
21.10.2013 04:15 8,6 C 91 % 1021,9 hPa 0,0 l/m 0,0 km/h (0 Bft) O-SO 112 7,2 C 8,7 C 0,0 km/h (0 Bft)
21.10.2013 04:20 8,2 C 91 % 1021,9 hPa 0,0 l/m 0,3 km/h (0 Bft) O 90 6,8 C 8,8 C 2,3 km/h (1 Bft)
21.10.2013 04:25 8,5 C 92 % 1021,8 hPa 0,0 l/m 1,0 km/h (0 Bft) S 180 7,3 C 8,8 C 5,1 km/h (1 Bft)
21.10.2013 04:30 8,3 C 92 % 1021,8 hPa 0,0 l/m 0,8 km/h (0 Bft) O 90 7,1 C 8,8 C 0,0 km/h (0 Bft)
21.10.2013 04:35 8,5 C 92 % 1021,8 hPa 0,0 l/m 0,2 km/h (0 Bft) O 90 7,3 C 8,8 C 0,0 km/h (0 Bft)
21.10.2013 04:40 8,5 C 92 % 1021,8 hPa 0,0 l/m 0,3 km/h (0 Bft) S 180 7,3 C 8,9 C 1,6 km/h (1 Bft)
21.10.2013 04:45 8,3 C 92 % 1021,8 hPa 0,0 l/m 0,6 km/h (0 Bft) O-SO 112 7,1 C 8,8 C 0,0 km/h (0 Bft)
21.10.2013 04:50 8,1 C 92 % 1021,8 hPa 0,0 l/m 0,5 km/h (0 Bft) O-SO 112 6,9 C 8,6 C 0,0 km/h (0 Bft)
21.10.2013 04:55 8,0 C 92 % 1021,8 hPa 0,0 l/m 0,2 km/h (0 Bft) O-SO 112 6,8 C 8,6 C 0,0 km/h (0 Bft)
21.10.2013 05:00 8,0 C 92 % 1021,8 hPa 0,0 l/m 0,2 km/h (0 Bft) S 180 6,8 C 8,5 C 0,0 km/h (0 Bft)
21.10.2013 05:05 7,7 C 92 % 1021,6 hPa 0,0 l/m 0,2 km/h (0 Bft) S-SW 202 6,5 C 8,3 C 0,0 km/h (0 Bft)
21.10.2013 05:10 7,8 C 92 % 1021,6 hPa 0,0 l/m 0,2 km/h (0 Bft) S 180 6,6 C 8,2 C 0,0 km/h (0 Bft)
21.10.2013 05:15 7,5 C 92 % 1021,6 hPa 0,0 l/m 0,0 km/h (0 Bft) W-SW 247 6,3 C 8,0 C 0,0 km/h (0 Bft)
21.10.2013 05:20 7,5 C 92 % 1021,6 hPa 0,0 l/m 0,2 km/h (0 Bft) O-SO 112 6,3 C 8,0 C 0,0 km/h (0 Bft)
21.10.2013 05:25 7,4 C 92 % 1021,2 hPa 0,0 l/m 0,2 km/h (0 Bft) O 90 6,2 C 7,8 C 0,0 km/h (0 Bft)
21.10.2013 05:30 7,2 C 92 % 1021,2 hPa 0,0 l/m 0,2 km/h (0 Bft) O 90 6,0 C 7,7 C 1,9 km/h (1 Bft)
21.10.2013 05:35 7,7 C 92 % 1021,2 hPa 0,0 l/m 0,2 km/h (0 Bft) NO 45 6,5 C 7,7 C 0,0 km/h (0 Bft)
21.10.2013 05:40 7,5 C 92 % 1021,2 hPa 0,0 l/m 0,2 km/h (0 Bft) NO 45 6,3 C 7,7 C 0,0 km/h (0 Bft)
21.10.2013 05:45 7,5 C 93 % 1021,4 hPa 0,0 l/m 0,0 km/h (0 Bft) N 360 6,4 C 7,7 C 0,0 km/h (0 Bft)
21.10.2013 05:50 7,2 C 93 % 1021,4 hPa 0,0 l/m 0,0 km/h (0 Bft) N 360 6,1 C 7,7 C 0,0 km/h (0 Bft)
21.10.2013 05:55 7,7 C 93 % 1021,4 hPa 0,0 l/m 0,3 km/h (0 Bft) O 90 6,6 C 7,6 C 1,8 km/h (1 Bft)
21.10.2013 06:00 7,6 C 93 % 1021,4 hPa 0,0 l/m 0,5 km/h (0 Bft) S 180 6,5 C 7,7 C 0,0 km/h (0 Bft)
21.10.2013 06:05 7,6 C 93 % 1021,4 hPa 0,0 l/m 0,5 km/h (0 Bft) SO 135 6,5 C 7,7 C 0,0 km/h (0 Bft)
21.10.2013 06:10 7,3 C 93 % 1021,4 hPa 0,0 l/m 0,0 km/h (0 Bft) SO 135 6,2 C 7,7 C 0,0 km/h (0 Bft)
21.10.2013 06:15 7,2 C 93 % 1021,4 hPa 0,0 l/m 0,2 km/h (0 Bft) SO 135 6,1 C 7,6 C 1,8 km/h (1 Bft)
21.10.2013 06:20 7,3 C 93 % 1021,4 hPa 0,0 l/m 0,2 km/h (0 Bft) SO 135 6,2 C 7,6 C 0,0 km/h (0 Bft)
21.10.2013 06:25 7,2 C 93 % 1021,2 hPa 0,0 l/m 0,2 km/h (0 Bft) S 180 6,1 C 7,5 C 0,0 km/h (0 Bft)
21.10.2013 06:30 7,3 C 93 % 1021,2 hPa 0,0 l/m 0,0 km/h (0 Bft) S-SO 157 6,2 C 7,5 C 0,0 km/h (0 Bft)
21.10.2013 06:35 7,4 C 93 % 1021,2 hPa 0,0 l/m 0,0 km/h (0 Bft) NO 45 6,3 C 7,5 C 0,0 km/h (0 Bft)
21.10.2013 06:40 7,3 C 93 % 1021,2 hPa 0,0 l/m 0,0 km/h (0 Bft) NO 45 6,2 C 7,5 C 0,0 km/h (0 Bft)
21.10.2013 06:45 7,3 C 93 % 1021,4 hPa 0,0 l/m 0,0 km/h (0 Bft) O 90 6,2 C 7,4 C 0,0 km/h (0 Bft)
21.10.2013 06:50 7,4 C 94 % 1021,4 hPa 0,0 l/m 0,0 km/h (0 Bft) O-SO 112 6,5 C 7,5 C 0,0 km/h (0 Bft)
21.10.2013 06:55 7,5 C 94 % 1021,4 hPa 0,0 l/m 0,0 km/h (0 Bft) O-SO 112 6,6 C 7,7 C 0,0 km/h (0 Bft)
21.10.2013 07:00 7,6 C 94 % 1021,4 hPa 0,0 l/m 0,0 km/h (0 Bft) O-SO 112 6,7 C 7,8 C 0,0 km/h (0 Bft)
21.10.2013 07:05 7,5 C 94 % 1021,5 hPa 0,0 l/m 0,0 km/h (0 Bft) O-SO 112 6,6 C 7,9 C 0,0 km/h (0 Bft)
21.10.2013 07:10 7,5 C 94 % 1021,5 hPa 0,0 l/m 0,0 km/h (0 Bft) O-NO 67 6,6 C 8,0 C 0,0 km/h (0 Bft)
21.10.2013 07:15 7,6 C 94 % 1021,5 hPa 0,0 l/m 0,0 km/h (0 Bft) NO 45 6,7 C 8,0 C 0,0 km/h (0 Bft)
21.10.2013 07:20 7,5 C 94 % 1021,5 hPa 0,0 l/m 0,0 km/h (0 Bft) NO 45 6,6 C 8,0 C 0,0 km/h (0 Bft)
21.10.2013 07:25 7,6 C 94 % 1021,5 hPa 0,0 l/m 0,0 km/h (0 Bft) O 90 6,7 C 8,0 C 0,0 km/h (0 Bft)
21.10.2013 07:30 7,8 C 94 % 1021,5 hPa 0,0 l/m 0,0 km/h (0 Bft) O-NO 67 6,9 C 8,2 C 0,0 km/h (0 Bft)
21.10.2013 07:35 8,0 C 94 % 1021,5 hPa 0,0 l/m 0,2 km/h (0 Bft) W-SW 247 7,1 C 8,6 C 0,0 km/h (0 Bft)
21.10.2013 07:40 8,0 C 94 % 1021,5 hPa 0,0 l/m 0,2 km/h (0 Bft) S-SW 202 7,1 C 8,6 C 0,0 km/h (0 Bft)
21.10.2013 07:45 8,2 C 94 % 1021,6 hPa 0,0 l/m 0,2 km/h (0 Bft) NO 45 7,3 C 8,6 C 0,0 km/h (0 Bft)
21.10.2013 07:50 8,2 C 94 % 1021,6 hPa 0,0 l/m 0,0 km/h (0 Bft) SO 135 7,3 C 8,6 C 0,0 km/h (0 Bft)
21.10.2013 07:55 8,3 C 94 % 1021,6 hPa 0,0 l/m 0,2 km/h (0 Bft) S-SO 157 7,4 C 8,7 C 2,1 km/h (1 Bft)
21.10.2013 08:00 8,4 C 94 % 1021,6 hPa 0,0 l/m 0,2 km/h (0 Bft) O-SO 112 7,5 C 8,8 C 0,0 km/h (0 Bft)
21.10.2013 08:05 8,5 C 94 % 1021,9 hPa 0,0 l/m 0,2 km/h (0 Bft) S 180 7,6 C 8,9 C 1,9 km/h (1 Bft)
21.10.2013 08:10 8,5 C 94 % 1021,9 hPa 0,0 l/m 0,3 km/h (0 Bft) S 180 7,6 C 8,9 C 0,0 km/h (0 Bft)
21.10.2013 08:15 8,6 C 94 % 1021,9 hPa 0,0 l/m 0,3 km/h (0 Bft) O 90 7,7 C 9,0 C 0,0 km/h (0 Bft)
21.10.2013 08:20 8,7 C 94 % 1021,9 hPa 0,0 l/m 0,2 km/h (0 Bft) S 180 7,8 C 9,0 C 0,0 km/h (0 Bft)
21.10.2013 08:25 8,6 C 94 % 1022,0 hPa 0,0 l/m 0,2 km/h (0 Bft) SO 135 7,7 C 9,0 C 0,0 km/h (0 Bft)
21.10.2013 08:30 9,0 C 94 % 1022,0 hPa 0,0 l/m 0,8 km/h (0 Bft) NO 45 8,1 C 9,2 C 2,4 km/h (1 Bft)
21.10.2013 08:35 9,4 C 94 % 1022,0 hPa 0,0 l/m 1,0 km/h (0 Bft) NO 45 8,5 C 9,5 C 0,0 km/h (0 Bft)
21.10.2013 08:40 9,6 C 94 % 1022,0 hPa 0,0 l/m 0,5 km/h (0 Bft) SW 225 8,7 C 9,7 C 2,1 km/h (1 Bft)
21.10.2013 08:45 9,5 C 94 % 1022,1 hPa 0,0 l/m 0,2 km/h (0 Bft) SO 135 8,6 C 9,8 C 0,0 km/h (0 Bft)
21.10.2013 08:50 9,7 C 94 % 1022,1 hPa 0,0 l/m 0,0 km/h (0 Bft) SO 135 8,8 C 9,9 C 0,0 km/h (0 Bft)
21.10.2013 08:55 10,0 C 94 % 1022,1 hPa 0,0 l/m 0,0 km/h (0 Bft) SO 135 9,1 C 10,2 C 0,0 km/h (0 Bft)
21.10.2013 09:00 10,2 C 94 % 1022,1 hPa 0,0 l/m 0,0 km/h (0 Bft) SO 135 9,3 C 10,5 C 0,0 km/h (0 Bft)
21.10.2013 09:05 10,4 C 94 % 1022,2 hPa 0,0 l/m 0,0 km/h (0 Bft) S-SO 157 9,5 C 10,7 C 0,0 km/h (0 Bft)
21.10.2013 09:10 10,4 C 94 % 1022,2 hPa 0,0 l/m 0,0 km/h (0 Bft) S-SW 202 9,5 C 10,9 C 0,0 km/h (0 Bft)
21.10.2013 09:15 10,6 C 94 % 1022,2 hPa 0,0 l/m 0,0 km/h (0 Bft) O-SO 112 9,7 C 11,0 C 0,0 km/h (0 Bft)
21.10.2013 09:20 10,7 C 94 % 1022,2 hPa 0,0 l/m 0,0 km/h (0 Bft) O-SO 112 9,8 C 11,2 C 0,0 km/h (0 Bft)
21.10.2013 09:25 10,8 C 94 % 1022,1 hPa 0,0 l/m 0,2 km/h (0 Bft) SW 225 9,9 C 11,3 C 0,0 km/h (0 Bft)
21.10.2013 09:28 10,8 C 93 % 1022,1 hPa 0,0 l/m 0,5 km/h (0 Bft) N-NW 337 9,7 C 11,5 C 2,1 km/h (1 Bft)
21.10.2013 09:30 10,8 C 93 % 1022,1 hPa 0,0 l/m 0,5 km/h (0 Bft) N-NW 337 9,7 C 11,5 C 2,1 km/h (1 Bft)
21.10.2013 09:35 11,1 C 93 % 1022,1 hPa 0,0 l/m 1,4 km/h (1 Bft) N 360 10,0 C 11,9 C 3,4 km/h (1 Bft)
21.10.2013 09:40 11,4 C 93 % 1022,1 hPa 0,0 l/m 1,3 km/h (1 Bft) S 180 10,3 C 12,5 C 0,0 km/h (0 Bft)
21.10.2013 09:45 12,0 C 92 % 1021,9 hPa 0,0 l/m 0,8 km/h (0 Bft) W-NW 292 10,7 C 15,2 C 2,4 km/h (1 Bft)
21.10.2013 09:50 12,4 C 91 % 1021,9 hPa 0,0 l/m 1,1 km/h (1 Bft) N-NO 22 11,0 C 16,5 C 3,2 km/h (1 Bft)
21.10.2013 09:55 12,7 C 92 % 1021,9 hPa 0,0 l/m 1,1 km/h (1 Bft) S 180 11,4 C 17,5 C 0,0 km/h (0 Bft)
21.10.2013 10:00 12,9 C 92 % 1021,9 hPa 0,0 l/m 0,3 km/h (0 Bft) W 270 11,6 C 17,3 C 0,0 km/h (0 Bft)
21.10.2013 10:05 13,3 C 89 % 1022,1 hPa 0,0 l/m 0,2 km/h (0 Bft) O-NO 67 11,5 C 17,6 C 5,5 km/h (1 Bft)
21.10.2013 10:10 13,6 C 88 % 1022,1 hPa 0,0 l/m 0,5 km/h (0 Bft) N-NO 22 11,6 C 17,7 C 2,9 km/h (1 Bft)
21.10.2013 10:15 13,9 C 89 % 1022,1 hPa 0,0 l/m 0,8 km/h (0 Bft) W 270 12,1 C 17,7 C 2,3 km/h (1 Bft)
21.10.2013 10:20 14,4 C 88 % 1022,1 hPa 0,0 l/m 0,6 km/h (0 Bft) NO 45 12,4 C 17,7 C 0,0 km/h (0 Bft)
21.10.2013 10:25 15,0 C 87 % 1022,1 hPa 0,0 l/m 0,5 km/h (0 Bft) NO 45 12,9 C 18,1 C 0,0 km/h (0 Bft)
21.10.2013 10:30 15,1 C 87 % 1022,1 hPa 0,0 l/m 0,2 km/h (0 Bft) W-NW 292 13,0 C 18,2 C 0,0 km/h (0 Bft)
21.10.2013 10:35 15,1 C 86 % 1022,1 hPa 0,0 l/m 0,2 km/h (0 Bft) NW 315 12,8 C 18,0 C 0,0 km/h (0 Bft)
21.10.2013 10:40 15,1 C 86 % 1022,1 hPa 0,0 l/m 0,2 km/h (0 Bft) W-NW 292 12,8 C 17,6 C 0,0 km/h (0 Bft)
21.10.2013 10:45 15,1 C 83 % 1022,2 hPa 0,0 l/m 0,3 km/h (0 Bft) W-NW 292 12,2 C 17,4 C 0,0 km/h (0 Bft)
21.10.2013 10:50 15,2 C 83 % 1022,2 hPa 0,0 l/m 0,6 km/h (0 Bft) N 360 12,3 C 17,6 C 3,1 km/h (1 Bft)
21.10.2013 10:55 15,4 C 78 % 1022,2 hPa 0,0 l/m 1,1 km/h (1 Bft) N-NW 337 11,6 C 18,7 C 2,4 km/h (1 Bft)
21.10.2013 11:00 16,0 C 81 % 1022,2 hPa 0,0 l/m 1,6 km/h (1 Bft) W 270 12,7 C 18,9 C 0,0 km/h (0 Bft)
21.10.2013 11:05 16,3 C 84 % 1022,9 hPa 0,0 l/m 0,8 km/h (0 Bft) W-SW 247 13,6 C 19,3 C 0,0 km/h (0 Bft)
21.10.2013 11:10 16,3 C 84 % 1022,9 hPa 0,0 l/m 0,0 km/h (0 Bft) W-SW 247 13,6 C 19,2 C 0,0 km/h (0 Bft)
21.10.2013 11:15 16,6 C 84 % 1022,9 hPa 0,0 l/m 0,0 km/h (0 Bft) W-SW 247 13,9 C 19,6 C 0,0 km/h (0 Bft)
21.10.2013 11:20 17,2 C 83 % 1022,9 hPa 0,0 l/m 0,0 km/h (0 Bft) W-SW 247 14,3 C 20,1 C 0,0 km/h (0 Bft)
21.10.2013 11:25 17,7 C 79 % 1022,9 hPa 0,0 l/m 0,0 km/h (0 Bft) W-SW 247 14,0 C 21,5 C 0,0 km/h (0 Bft)
21.10.2013 11:30 17,8 C 79 % 1022,9 hPa 0,0 l/m 0,2 km/h (0 Bft) W-NW 292 14,1 C 22,5 C 0,0 km/h (0 Bft)
21.10.2013 11:35 17,5 C 72 % 1022,9 hPa 0,0 l/m 1,0 km/h (0 Bft) NW 315 12,4 C 22,3 C 0,0 km/h (0 Bft)
21.10.2013 11:40 17,5 C 77 % 1022,9 hPa 0,0 l/m 1,9 km/h (1 Bft) W-NW 292 13,4 C 21,4 C 2,7 km/h (1 Bft)
21.10.2013 11:45 17,8 C 80 % 1023,2 hPa 0,0 l/m 2,6 km/h (1 Bft) SW 225 14,3 C 20,6 C 6,9 km/h (2 Bft)
21.10.2013 11:50 18,0 C 79 % 1023,2 hPa 0,0 l/m 2,6 km/h (1 Bft) W-SW 247 14,3 C 20,4 C 3,4 km/h (1 Bft)
21.10.2013 11:55 18,4 C 78 % 1023,2 hPa 0,0 l/m 1,9 km/h (1 Bft) SW 225 14,5 C 20,5 C 0,0 km/h (0 Bft)
21.10.2013 12:00 18,5 C 76 % 1023,2 hPa 0,0 l/m 1,9 km/h (1 Bft) W-NW 292 14,2 C 20,9 C 6,4 km/h (2 Bft)
21.10.2013 12:05 18,3 C 69 % 1023,3 hPa 0,0 l/m 2,9 km/h (1 Bft) W-NW 292 12,5 C 20,8 C 4,3 km/h (1 Bft)
21.10.2013 12:10 18,1 C 58 % 1023,3 hPa 0,0 l/m 3,4 km/h (1 Bft) N-NW 337 9,7 C 20,7 C 1,6 km/h (1 Bft)
21.10.2013 12:15 18,4 C 63 % 1023,3 hPa 0,0 l/m 1,6 km/h (1 Bft) W-SW 247 11,2 C 20,9 C 0,0 km/h (0 Bft)
21.10.2013 12:20 18,3 C 62 % 1023,3 hPa 0,0 l/m 1,6 km/h (1 Bft) W-NW 292 10,9 C 20,8 C 0,0 km/h (0 Bft)
21.10.2013 12:25 18,0 C 59 % 1023,3 hPa 0,0 l/m 1,8 km/h (1 Bft) W 270 9,9 C 20,6 C 2,7 km/h (1 Bft)
21.10.2013 12:30 18,0 C 58 % 1023,3 hPa 0,0 l/m 1,4 km/h (1 Bft) W-NW 292 9,6 C 20,4 C 0,0 km/h (0 Bft)
21.10.2013 12:35 18,0 C 58 % 1023,3 hPa 0,0 l/m 1,0 km/h (0 Bft) O-NO 67 9,6 C 21,4 C 4,8 km/h (1 Bft)
21.10.2013 12:40 18,3 C 59 % 1023,3 hPa 0,0 l/m 1,4 km/h (1 Bft) O 90 10,1 C 21,6 C 0,0 km/h (0 Bft)
21.10.2013 12:45 18,5 C 59 % 1023,2 hPa 0,0 l/m 1,4 km/h (1 Bft) O 90 10,3 C 22,2 C 0,0 km/h (0 Bft)
21.10.2013 12:50 18,3 C 59 % 1023,2 hPa 0,0 l/m 0,2 km/h (0 Bft) O-NO 67 10,1 C 22,2 C 0,0 km/h (0 Bft)
21.10.2013 12:55 18,3 C 59 % 1023,2 hPa 0,0 l/m 0,2 km/h (0 Bft) NW 315 10,1 C 22,1 C 2,1 km/h (1 Bft)
21.10.2013 13:00 18,2 C 60 % 1023,2 hPa 0,0 l/m 0,3 km/h (0 Bft) W-SW 247 10,3 C 21,4 C 0,0 km/h (0 Bft)
21.10.2013 13:05 18,0 C 59 % 1023,0 hPa 0,0 l/m 1,0 km/h (0 Bft) S-SW 202 9,9 C 20,7 C 0,0 km/h (0 Bft)
21.10.2013 13:10 17,8 C 57 % 1023,0 hPa 0,0 l/m 1,8 km/h (1 Bft) S-SW 202 9,2 C 20,3 C 4,7 km/h (1 Bft)
21.10.2013 13:15 17,8 C 58 % 1023,0 hPa 0,0 l/m 3,5 km/h (1 Bft) S 180 9,4 C 19,9 C 3,5 km/h (1 Bft)
21.10.2013 13:20 18,0 C 57 % 1023,0 hPa 0,0 l/m 4,3 km/h (1 Bft) S-SW 202 9,4 C 19,8 C 6,8 km/h (2 Bft)
21.10.2013 13:25 18,2 C 56 % 1022,9 hPa 0,0 l/m 4,0 km/h (1 Bft) S 180 9,3 C 19,8 C 3,4 km/h (1 Bft)
21.10.2013 13:30 18,4 C 56 % 1022,9 hPa 0,0 l/m 2,6 km/h (1 Bft) S 180 9,5 C 20,2 C 3,9 km/h (1 Bft)
21.10.2013 13:35 18,1 C 57 % 1022,9 hPa 0,0 l/m 1,8 km/h (1 Bft) W-SW 247 9,4 C 20,1 C 5,1 km/h (1 Bft)
21.10.2013 13:40 18,1 C 58 % 1022,9 hPa 0,0 l/m 2,6 km/h (1 Bft) S-SW 202 9,7 C 20,0 C 5,0 km/h (1 Bft)
21.10.2013 13:45 18,3 C 57 % 1022,9 hPa 0,0 l/m 2,6 km/h (1 Bft) S 180 9,6 C 20,3 C 2,7 km/h (1 Bft)
21.10.2013 13:50 18,7 C 55 % 1022,9 hPa 0,0 l/m 2,9 km/h (1 Bft) S-SW 202 9,5 C 20,8 C 7,6 km/h (2 Bft)
21.10.2013 13:55 18,8 C 55 % 1022,9 hPa 0,0 l/m 2,7 km/h (1 Bft) W-SW 247 9,6 C 21,3 C 1,9 km/h (1 Bft)
21.10.2013 14:00 19,1 C 55 % 1022,9 hPa 0,0 l/m 2,9 km/h (1 Bft) S 180 9,8 C 21,6 C 7,6 km/h (2 Bft)
21.10.2013 14:05 19,3 C 54 % 1022,8 hPa 0,0 l/m 2,9 km/h (1 Bft) W-SW 247 9,8 C 22,2 C 3,9 km/h (1 Bft)
21.10.2013 14:10 19,2 C 55 % 1022,8 hPa 0,0 l/m 3,2 km/h (1 Bft) S 180 9,9 C 22,5 C 1,9 km/h (1 Bft)
21.10.2013 14:15 19,3 C 53 % 1022,8 hPa 0,0 l/m 3,7 km/h (1 Bft) S-SO 157 9,5 C 22,8 C 4,5 km/h (1 Bft)
21.10.2013 14:20 19,1 C 54 % 1022,8 hPa 0,0 l/m 3,7 km/h (1 Bft) W-SW 247 9,6 C 23,1 C 6,6 km/h (2 Bft)
21.10.2013 14:25 19,4 C 54 % 1022,4 hPa 0,0 l/m 3,2 km/h (1 Bft) W 270 9,8 C 23,8 C 4,3 km/h (1 Bft)
21.10.2013 14:29 19,0 C 54 % 1022,4 hPa 0,0 l/m 3,1 km/h (1 Bft) S 180 9,5 C 24,4 C 3,1 km/h (1 Bft)
21.10.2013 14:30 19,0 C 54 % 1022,4 hPa 0,0 l/m 3,1 km/h (1 Bft) S 180 9,5 C 24,4 C 3,1 km/h (1 Bft)
21.10.2013 14:35 18,3 C 55 % 1022,4 hPa 0,0 l/m 3,4 km/h (1 Bft) W-NW 292 9,1 C 25,2 C 5,1 km/h (1 Bft)
21.10.2013 14:40 17,9 C 55 % 1022,4 hPa 0,0 l/m 3,4 km/h (1 Bft) W-SW 247 8,7 C 24,8 C 1,6 km/h (1 Bft)
21.10.2013 14:45 17,4 C 56 % 1021,8 hPa 0,0 l/m 3,4 km/h (1 Bft) N-NW 337 8,5 C 24,6 C 6,4 km/h (2 Bft)
21.10.2013 14:50 17,2 C 55 % 1021,8 hPa 0,0 l/m 3,1 km/h (1 Bft) W-NW 292 8,1 C 24,5 C 0,0 km/h (0 Bft)
21.10.2013 14:55 16,9 C 57 % 1021,8 hPa 0,0 l/m 1,6 km/h (1 Bft) W-NW 292 8,3 C 24,5 C 3,9 km/h (1 Bft)
21.10.2013 15:00 17,0 C 57 % 1021,8 hPa 0,0 l/m 1,3 km/h (1 Bft) W-NW 292 8,4 C 24,4 C 2,9 km/h (1 Bft)
21.10.2013 15:05 16,9 C 57 % 1021,2 hPa 0,0 l/m 1,4 km/h (1 Bft) NO 45 8,3 C 24,6 C 0,0 km/h (0 Bft)
21.10.2013 15:10 16,7 C 58 % 1021,2 hPa 0,0 l/m 1,4 km/h (1 Bft) NO 45 8,4 C 24,6 C 0,0 km/h (0 Bft)
21.10.2013 15:15 17,0 C 58 % 1021,2 hPa 0,0 l/m 1,4 km/h (1 Bft) W 270 8,7 C 25,6 C 1,8 km/h (1 Bft)
21.10.2013 15:20 17,1 C 58 % 1021,2 hPa 0,0 l/m 1,9 km/h (1 Bft) S-SW 202 8,8 C 25,2 C 1,8 km/h (1 Bft)
21.10.2013 15:25 17,0 C 58 % 1020,9 hPa 0,0 l/m 2,1 km/h (1 Bft) W-NW 292 8,7 C 24,4 C 0,0 km/h (0 Bft)
21.10.2013 15:30 16,8 C 59 % 1020,9 hPa 0,0 l/m 2,3 km/h (1 Bft) W 270 8,7 C 24,3 C 0,0 km/h (0 Bft)
21.10.2013 15:35 16,9 C 58 % 1020,9 hPa 0,0 l/m 1,0 km/h (0 Bft) N 360 8,6 C 24,5 C 3,2 km/h (1 Bft)
21.10.2013 15:40 16,8 C 59 % 1020,9 hPa 0,0 l/m 1,1 km/h (1 Bft) N-NO 22 8,7 C 23,9 C 4,7 km/h (1 Bft)
21.10.2013 15:45 16,8 C 59 % 1021,0 hPa 0,0 l/m 2,6 km/h (1 Bft) NO 45 8,7 C 21,3 C 4,2 km/h (1 Bft)
21.10.2013 15:50 16,8 C 59 % 1021,0 hPa 0,0 l/m 2,6 km/h (1 Bft) NO 45 8,7 C 21,1 C 3,9 km/h (1 Bft)
21.10.2013 15:55 16,9 C 59 % 1021,0 hPa 0,0 l/m 1,9 km/h (1 Bft) O 90 8,8 C 19,7 C 0,0 km/h (0 Bft)
21.10.2013 16:00 16,9 C 59 % 1021,0 hPa 0,0 l/m 1,9 km/h (1 Bft) NW 315 8,8 C 19,4 C 3,9 km/h (1 Bft)
21.10.2013 16:05 17,0 C 59 % 1021,0 hPa 0,0 l/m 1,8 km/h (1 Bft) NO 45 8,9 C 19,3 C 2,1 km/h (1 Bft)
21.10.2013 16:10 16,8 C 60 % 1021,0 hPa 0,0 l/m 2,1 km/h (1 Bft) N-NO 22 9,0 C 19,2 C 1,6 km/h (1 Bft)
21.10.2013 16:15 17,0 C 59 % 1021,0 hPa 0,0 l/m 2,3 km/h (1 Bft) NO 45 8,9 C 19,1 C 1,8 km/h (1 Bft)
21.10.2013 16:20 16,8 C 60 % 1021,0 hPa 0,0 l/m 1,6 km/h (1 Bft) N-NW 337 9,0 C 19,0 C 1,9 km/h (1 Bft)
21.10.2013 16:25 16,9 C 60 % 1021,0 hPa 0,0 l/m 1,8 km/h (1 Bft) O 90 9,1 C 19,2 C 3,1 km/h (1 Bft)
21.10.2013 16:30 16,7 C 60 % 1021,0 hPa 0,0 l/m 1,8 km/h (1 Bft) O 90 8,9 C 19,2 C 3,1 km/h (1 Bft)
21.10.2013 16:35 16,7 C 60 % 1021,0 hPa 0,0 l/m 1,8 km/h (1 Bft) O 90 8,9 C 19,2 C 3,1 km/h (1 Bft)
21.10.2013 16:40 16,7 C 60 % 1021,0 hPa 0,0 l/m 0,0 km/h (0 Bft) O 90 8,9 C 19,2 C 0,0 km/h (0 Bft)
21.10.2013 16:45 16,5 C 61 % 1020,6 hPa 0,0 l/m 0,0 km/h (0 Bft) O 90 9,0 C 19,2 C 0,0 km/h (0 Bft)
21.10.2013 16:50 16,2 C 62 % 1020,6 hPa 0,0 l/m 0,0 km/h (0 Bft) O 90 8,9 C 19,2 C 0,0 km/h (0 Bft)
21.10.2013 16:55 16,1 C 63 % 1020,6 hPa 0,0 l/m 0,0 km/h (0 Bft) O 90 9,1 C 19,2 C 0,0 km/h (0 Bft)
21.10.2013 17:00 16,1 C 63 % 1020,6 hPa 0,0 l/m 0,0 km/h (0 Bft) O 90 9,1 C 19,2 C 0,0 km/h (0 Bft)
21.10.2013 17:05 16,0 C 64 % 1021,1 hPa 0,0 l/m 0,0 km/h (0 Bft) O 90 9,2 C 19,2 C 0,0 km/h (0 Bft)
21.10.2013 17:10 15,6 C 65 % 1021,1 hPa 0,0 l/m 1,6 km/h (1 Bft) O-NO 67 9,0 C 18,5 C 3,5 km/h (1 Bft)
21.10.2013 17:15 15,7 C 65 % 1021,1 hPa 0,0 l/m 1,3 km/h (1 Bft) O-NO 67 9,1 C 18,1 C 2,3 km/h (1 Bft)
21.10.2013 17:20 15,4 C 66 % 1021,1 hPa 0,0 l/m 1,3 km/h (1 Bft) O-NO 67 9,1 C 18,1 C 2,3 km/h (1 Bft)
21.10.2013 17:25 15,4 C 67 % 1020,9 hPa 0,0 l/m 0,3 km/h (0 Bft) O 90 9,3 C 17,1 C 1,8 km/h (1 Bft)
21.10.2013 17:30 15,5 C 67 % 1020,9 hPa 0,0 l/m 0,3 km/h (0 Bft) O 90 9,4 C 17,1 C 1,8 km/h (1 Bft)
21.10.2013 17:35 15,3 C 68 % 1020,9 hPa 0,0 l/m 2,3 km/h (1 Bft) O-NO 67 9,4 C 16,4 C 3,4 km/h (1 Bft)
21.10.2013 17:40 15,3 C 68 % 1020,9 hPa 0,0 l/m 2,3 km/h (1 Bft) O-NO 67 9,4 C 16,4 C 3,4 km/h (1 Bft)
21.10.2013 17:45 15,0 C 69 % 1021,1 hPa 0,0 l/m 2,3 km/h (1 Bft) O-NO 67 9,4 C 16,4 C 3,4 km/h (1 Bft)
21.10.2013 17:50 14,9 C 69 % 1021,1 hPa 0,0 l/m 3,1 km/h (1 Bft) O-NO 67 9,3 C 15,4 C 3,9 km/h (1 Bft)
21.10.2013 17:55 14,6 C 71 % 1021,1 hPa 0,0 l/m 3,1 km/h (1 Bft) O-NO 67 9,4 C 15,4 C 3,9 km/h (1 Bft)
21.10.2013 18:00 14,5 C 72 % 1021,1 hPa 0,0 l/m 3,5 km/h (1 Bft) O 90 9,5 C 14,8 C 3,7 km/h (1 Bft)
21.10.2013 18:05 14,3 C 72 % 1021,1 hPa 0,0 l/m 3,5 km/h (1 Bft) O-NO 67 9,3 C 14,6 C 5,3 km/h (1 Bft)
21.10.2013 18:10 14,0 C 73 % 1021,1 hPa 0,0 l/m 3,1 km/h (1 Bft) O-SO 112 9,2 C 14,4 C 0,0 km/h (0 Bft)
21.10.2013 18:15 13,0 C 74 % 1021,1 hPa 0,0 l/m 1,1 km/h (1 Bft) O-NO 67 8,5 C 13,7 C 1,8 km/h (1 Bft)
21.10.2013 18:20 13,0 C 75 % 1021,1 hPa 0,0 l/m 1,1 km/h (1 Bft) O-NO 67 8,7 C 13,7 C 1,8 km/h (1 Bft)
21.10.2013 18:25 13,0 C 76 % 1021,2 hPa 0,0 l/m 1,1 km/h (1 Bft) O-NO 67 8,9 C 13,7 C 1,8 km/h (1 Bft)
21.10.2013 18:30 12,5 C 77 % 1021,2 hPa 0,0 l/m 1,4 km/h (1 Bft) O-SO 112 8,6 C 12,8 C 0,0 km/h (0 Bft)
21.10.2013 18:35 12,2 C 78 % 1021,2 hPa 0,0 l/m 0,0 km/h (0 Bft) O-NO 67 8,5 C 12,3 C 0,0 km/h (0 Bft)
21.10.2013 18:40 12,3 C 79 % 1021,2 hPa 0,0 l/m 0,3 km/h (0 Bft) O 90 8,8 C 12,0 C 2,7 km/h (1 Bft)
21.10.2013 18:45 12,6 C 79 % 1021,2 hPa 0,0 l/m 1,4 km/h (1 Bft) O 90 9,1 C 11,9 C 2,3 km/h (1 Bft)
21.10.2013 18:50 12,3 C 79 % 1021,2 hPa 0,0 l/m 1,6 km/h (1 Bft) O-SO 112 8,8 C 11,9 C 0,0 km/h (0 Bft)
21.10.2013 18:55 11,4 C 79 % 1021,2 hPa 0,0 l/m 0,5 km/h (0 Bft) O-SO 112 7,9 C 11,6 C 0,0 km/h (0 Bft)
21.10.2013 19:00 11,0 C 79 % 1021,2 hPa 0,0 l/m 0,0 km/h (0 Bft) O-SO 112 7,5 C 11,2 C 0,0 km/h (0 Bft)
21.10.2013 19:05 11,2 C 81 % 1021,4 hPa 0,0 l/m 0,3 km/h (0 Bft) O-NO 67 8,1 C 10,9 C 2,1 km/h (1 Bft)
21.10.2013 19:10 11,3 C 82 % 1021,4 hPa 0,0 l/m 0,3 km/h (0 Bft) O 90 8,3 C 11,0 C 0,0 km/h (0 Bft)
21.10.2013 19:15 11,3 C 83 % 1021,4 hPa 0,0 l/m 0,2 km/h (0 Bft) O-SO 112 8,5 C 10,8 C 0,0 km/h (0 Bft)
21.10.2013 19:20 11,1 C 83 % 1021,4 hPa 0,0 l/m 0,2 km/h (0 Bft) O 90 8,3 C 10,8 C 1,6 km/h (1 Bft)
21.10.2013 19:25 10,6 C 83 % 1021,5 hPa 0,0 l/m 0,6 km/h (0 Bft) NO 45 7,8 C 10,5 C 0,0 km/h (0 Bft)
21.10.2013 19:29 10,2 C 83 % 1021,5 hPa 0,0 l/m 0,5 km/h (0 Bft) O 90 7,4 C 10,3 C 0,0 km/h (0 Bft)
21.10.2013 19:30 10,2 C 83 % 1021,5 hPa 0,0 l/m 0,5 km/h (0 Bft) O 90 7,4 C 10,3 C 0,0 km/h (0 Bft)
21.10.2013 19:35 11,0 C 84 % 1021,5 hPa 0,0 l/m 1,3 km/h (1 Bft) O 90 8,4 C 10,2 C 3,9 km/h (1 Bft)
21.10.2013 19:40 11,2 C 85 % 1021,5 hPa 0,0 l/m 2,6 km/h (1 Bft) O 90 8,8 C 10,3 C 3,7 km/h (1 Bft)
21.10.2013 19:45 11,3 C 85 % 1021,3 hPa 0,0 l/m 3,5 km/h (1 Bft) NO 45 8,9 C 10,5 C 4,3 km/h (1 Bft)
21.10.2013 19:50 11,3 C 84 % 1021,3 hPa 0,0 l/m 3,5 km/h (1 Bft) O 90 8,7 C 10,8 C 3,5 km/h (1 Bft)
21.10.2013 19:55 11,2 C 84 % 1021,3 hPa 0,0 l/m 3,2 km/h (1 Bft) O 90 8,6 C 10,8 C 1,9 km/h (1 Bft)
21.10.2013 20:00 10,5 C 84 % 1021,3 hPa 0,0 l/m 1,8 km/h (1 Bft) O 90 7,9 C 10,6 C 0,0 km/h (0 Bft)
21.10.2013 20:05 9,8 C 84 % 1021,1 hPa 0,0 l/m 0,2 km/h (0 Bft) W-SW 247 7,2 C 10,3 C 0,0 km/h (0 Bft)
21.10.2013 20:10 9,6 C 84 % 1021,1 hPa 0,0 l/m 0,0 km/h (0 Bft) SO 135 7,0 C 10,1 C 0,0 km/h (0 Bft)
21.10.2013 20:15 9,6 C 85 % 1021,1 hPa 0,0 l/m 0,0 km/h (0 Bft) O-SO 112 7,2 C 9,8 C 0,0 km/h (0 Bft)
21.10.2013 20:20 9,4 C 85 % 1021,1 hPa 0,0 l/m 0,0 km/h (0 Bft) O-SO 112 7,0 C 9,6 C 0,0 km/h (0 Bft)
21.10.2013 20:25 9,3 C 85 % 1021,1 hPa 0,0 l/m 0,0 km/h (0 Bft) O-SO 112 6,9 C 9,4 C 0,0 km/h (0 Bft)
21.10.2013 20:30 9,0 C 85 % 1021,1 hPa 0,0 l/m 0,0 km/h (0 Bft) SO 135 6,6 C 9,3 C 0,0 km/h (0 Bft)
21.10.2013 20:35 8,8 C 86 % 1021,1 hPa 0,0 l/m 0,0 km/h (0 Bft) SO 135 6,6 C 9,1 C 0,0 km/h (0 Bft)
21.10.2013 20:40 8,9 C 86 % 1021,1 hPa 0,0 l/m 0,0 km/h (0 Bft) SO 135 6,7 C 9,0 C 0,0 km/h (0 Bft)
21.10.2013 20:45 9,0 C 87 % 1020,9 hPa 0,0 l/m 0,0 km/h (0 Bft) O-NO 67 7,0 C 9,0 C 0,0 km/h (0 Bft)
21.10.2013 20:50 8,7 C 87 % 1020,9 hPa 0,0 l/m 0,0 km/h (0 Bft) SO 135 6,7 C 9,0 C 0,0 km/h (0 Bft)
21.10.2013 20:55 8,5 C 87 % 1020,9 hPa 0,0 l/m 0,0 km/h (0 Bft) O-SO 112 6,5 C 8,9 C 0,0 km/h (0 Bft)
21.10.2013 21:00 8,6 C 87 % 1020,9 hPa 0,0 l/m 0,0 km/h (0 Bft) NO 45 6,6 C 8,8 C 0,0 km/h (0 Bft)
21.10.2013 21:05 8,4 C 88 % 1020,8 hPa 0,0 l/m 0,0 km/h (0 Bft) NO 45 6,5 C 8,7 C 0,0 km/h (0 Bft)
21.10.2013 21:10 8,7 C 88 % 1020,8 hPa 0,0 l/m 0,0 km/h (0 Bft) O-SO 112 6,8 C 8,6 C 0,0 km/h (0 Bft)
21.10.2013 21:15 8,1 C 88 % 1020,8 hPa 0,0 l/m 0,0 km/h (0 Bft) S 180 6,2 C 8,7 C 0,0 km/h (0 Bft)
21.10.2013 21:20 8,2 C 88 % 1020,8 hPa 0,0 l/m 0,0 km/h (0 Bft) O 90 6,3 C 8,4 C 0,0 km/h (0 Bft)
21.10.2013 21:25 8,5 C 89 % 1020,6 hPa 0,0 l/m 0,0 km/h (0 Bft) O 90 6,8 C 8,3 C 0,0 km/h (0 Bft)
21.10.2013 21:30 8,8 C 89 % 1020,6 hPa 0,0 l/m 0,0 km/h (0 Bft) O 90 7,1 C 8,4 C 0,0 km/h (0 Bft)
21.10.2013 21:35 9,2 C 89 % 1020,6 hPa 0,0 l/m 1,3 km/h (1 Bft) O 90 7,5 C 8,7 C 0,0 km/h (0 Bft)
21.10.2013 21:40 9,0 C 89 % 1020,6 hPa 0,0 l/m 1,4 km/h (1 Bft) O-SO 112 7,3 C 8,6 C 0,0 km/h (0 Bft)
21.10.2013 21:45 8,0 C 89 % 1020,5 hPa 0,0 l/m 0,2 km/h (0 Bft) SW 225 6,3 C 8,4 C 0,0 km/h (0 Bft)
21.10.2013 21:50 7,8 C 89 % 1020,5 hPa 0,0 l/m 0,0 km/h (0 Bft) SW 225 6,1 C 8,1 C 0,0 km/h (0 Bft)
21.10.2013 21:55 7,5 C 89 % 1020,5 hPa 0,0 l/m 0,0 km/h (0 Bft) SW 225 5,8 C 7,8 C 0,0 km/h (0 Bft)
21.10.2013 22:00 7,4 C 89 % 1020,5 hPa 0,0 l/m 0,0 km/h (0 Bft) SW 225 5,7 C 7,8 C 0,0 km/h (0 Bft)
21.10.2013 22:05 7,4 C 89 % 1020,3 hPa 0,0 l/m 0,0 km/h (0 Bft) SW 225 5,7 C 7,6 C 0,0 km/h (0 Bft)
21.10.2013 22:10 7,2 C 89 % 1020,3 hPa 0,0 l/m 0,0 km/h (0 Bft) W-SW 247 5,5 C 7,5 C 0,0 km/h (0 Bft)
21.10.2013 22:15 7,0 C 89 % 1020,3 hPa 0,0 l/m 0,2 km/h (0 Bft) S 180 5,3 C 7,3 C 0,0 km/h (0 Bft)
21.10.2013 22:20 7,6 C 90 % 1020,3 hPa 0,0 l/m 1,0 km/h (0 Bft) O 90 6,1 C 7,4 C 1,9 km/h (1 Bft)
21.10.2013 22:25 7,2 C 90 % 1020,2 hPa 0,0 l/m 0,8 km/h (0 Bft) SO 135 5,7 C 7,5 C 0,0 km/h (0 Bft)
21.10.2013 22:30 7,2 C 90 % 1020,2 hPa 0,0 l/m 0,3 km/h (0 Bft) NO 45 5,7 C 7,4 C 1,9 km/h (1 Bft)
21.10.2013 22:35 7,4 C 90 % 1020,2 hPa 0,0 l/m 0,6 km/h (0 Bft) S-SW 202 5,9 C 7,5 C 0,0 km/h (0 Bft)
21.10.2013 22:40 7,1 C 90 % 1020,2 hPa 0,0 l/m 0,5 km/h (0 Bft) S 180 5,6 C 7,4 C 0,0 km/h (0 Bft)
21.10.2013 22:45 7,5 C 90 % 1020,4 hPa 0,0 l/m 1,1 km/h (1 Bft) O 90 6,0 C 7,3 C 3,9 km/h (1 Bft)
21.10.2013 22:50 7,8 C 91 % 1020,4 hPa 0,0 l/m 2,6 km/h (1 Bft) O-SO 112 6,4 C 7,5 C 2,9 km/h (1 Bft)
21.10.2013 22:55 7,5 C 91 % 1020,4 hPa 0,0 l/m 2,4 km/h (1 Bft) NO 45 6,1 C 7,6 C 2,1 km/h (1 Bft)
21.10.2013 23:00 7,4 C 91 % 1020,4 hPa 0,0 l/m 1,1 km/h (1 Bft) N-NO 22 6,0 C 7,5 C 0,0 km/h (0 Bft)
21.10.2013 23:05 7,0 C 91 % 1020,0 hPa 0,0 l/m 0,3 km/h (0 Bft) O-SO 112 5,6 C 7,3 C 0,0 km/h (0 Bft)
21.10.2013 23:10 6,9 C 91 % 1020,0 hPa 0,0 l/m 0,5 km/h (0 Bft) O 90 5,5 C 7,1 C 1,9 km/h (1 Bft)
21.10.2013 23:15 7,4 C 91 % 1020,0 hPa 0,0 l/m 1,1 km/h (1 Bft) O-SO 112 6,0 C 7,2 C 0,0 km/h (0 Bft)
21.10.2013 23:20 7,1 C 91 % 1020,0 hPa 0,0 l/m 1,6 km/h (1 Bft) O 90 5,7 C 7,2 C 2,3 km/h (1 Bft)
21.10.2013 23:25 6,8 C 91 % 1019,9 hPa 0,0 l/m 0,8 km/h (0 Bft) S-SO 157 5,4 C 7,1 C 0,0 km/h (0 Bft)
21.10.2013 23:30 6,8 C 91 % 1019,9 hPa 0,0 l/m 0,3 km/h (0 Bft) S-SO 157 5,4 C 7,0 C 0,0 km/h (0 Bft)
21.10.2013 23:35 6,4 C 91 % 1019,9 hPa 0,0 l/m 0,2 km/h (0 Bft) W 270 5,0 C 6,9 C 0,0 km/h (0 Bft)
21.10.2013 23:40 6,5 C 91 % 1019,9 hPa 0,0 l/m 0,0 km/h (0 Bft) W-NW 292 5,1 C 6,6 C 2,6 km/h (1 Bft)
21.10.2013 23:45 6,6 C 91 % 1020,1 hPa 0,0 l/m 0,5 km/h (0 Bft) O 90 5,2 C 6,7 C 0,0 km/h (0 Bft)
21.10.2013 23:50 6,8 C 91 % 1020,1 hPa 0,0 l/m 0,8 km/h (0 Bft) O-NO 67 5,4 C 6,8 C 1,9 km/h (1 Bft)
21.10.2013 23:55 6,4 C 91 % 1020,1 hPa 0,0 l/m 0,3 km/h (0 Bft) O 90 5,0 C 6,9 C 0,0 km/h (0 Bft)
_ Min-Zeit 23:55 14:15 23:40 - 23:40 - - 23:55 23:40 23:55
Minimum _ 6,4 C 53 % 1019,9 hPa - 0,0 km/h (0 Bft) - - 5,0 C 6,6 C 0,0 km/h (0 Bft)
_ Max-Zeit 14:25 09:25 12:40 23:55 13:20 - - 11:55 15:15 14:00
Maximum _ 19,4 C 94 % 1023,3 hPa 0,0 l/m 4,3 km/h
S-SW (1 Bft)
- - 14,5 C 25,6 C 7,6 km/h
S (2 Bft)
Durchschnitt _ 11,8 C 82 % 1021,6 hPa #0,0 l/m 0,8 km/h (0 Bft) O - 8,5 C 13,2 C 1,1 km/h (1 Bft)